This is the latest recevied weather packets stored in our database for station/object N0ZJT. If no packets are shown the sender has not sent any weather packets the latest 10 day(s).
| Time | Temp. | Humidity | Pressure | Rain* | Wind** | Luminosity | Snow |
|---|---|---|---|---|---|---|---|
| 1777578290 | 12.22° C | 46% | 977 hPa | 0 mm | - | - | - |
| 1777577330 | 12.78° C | 48% | 977 hPa | 0 mm | - | - | - |
| 1777576490 | 12.78° C | 48% | 977 hPa | 0 mm | - | - | - |
| 1777575782 | 12.78° C | 49% | 977.2 hPa | 0 mm | - | - | - |
| 1777575530 | 12.78° C | 49% | 977.2 hPa | 0 mm | - | - | - |
| 1777574690 | 13.89° C | 48% | 977.1 hPa | 0 mm | - | - | - |
| 1777573730 | 12.78° C | 49% | 977.4 hPa | 0 mm | - | - | - |
| 1777572890 | 11.67° C | 51% | 977.6 hPa | 0 mm | - | - | - |
| 1777571930 | 11.11° C | 53% | 977.6 hPa | 0 mm | - | - | - |
| 1777571090 | 11.11° C | 51% | 977.7 hPa | 0 mm | - | - | - |
| 1777570382 | 11.67° C | 52% | 977.8 hPa | 0 mm | - | - | - |
| 1777570130 | 11.67° C | 52% | 977.8 hPa | 0 mm | - | - | - |
| 1777569290 | 11.67° C | 52% | 977.9 hPa | 0 mm | - | - | - |
| 1777568330 | 11.67° C | 52% | 977.8 hPa | 0 mm | - | - | - |
| 1777567742 | 12.22° C | 52% | 977.9 hPa | 0 mm | - | - | - |
| 1777567490 | 12.22° C | 52% | 977.9 hPa | 0 mm | - | - | - |
| 1777566530 | 11.67° C | 54% | 978 hPa | 0 mm | - | - | - |
| 1777565690 | 11.67° C | 52% | 978 hPa | 0 mm | - | - | - |
| 1777564730 | 11.67° C | 52% | 978 hPa | 0 mm | - | - | - |
| 1777564141 | 11.11° C | 51% | 977.8 hPa | 0 mm | - | - | - |
| 1777563890 | 11.11° C | 51% | 977.8 hPa | 0 mm | - | - | - |
| 1777563179 | 10.56° C | 53% | 977.9 hPa | 0 mm | - | - | - |
| 1777562930 | 10.56° C | 53% | 977.9 hPa | 0 mm | - | - | - |
| 1777562090 | 10.56° C | 54% | 977.9 hPa | 0 mm | - | - | - |
| 1777561381 | 10.56° C | 53% | 977.7 hPa | 0 mm | - | - | - |
* Rain latest hour (hover to see other rain measurements)
** Current wind speed in m/s (hover to see current wind gust speed)